KDTS

Details ICAO KDTS (DTS)
Name Destin Ft Walton Beach
Region United States
Timezone America/Chicago (UTC-5.0)
Plans Departing 23
Arriving 84
Stats Elevation 23 ft / 7 m (AMSL)
Location 30.400060° -86.471475°
Runways 1
Magnetic Variation 3.336° W
Sunrise 2018-05-23 10:48:51 UTC / 2018-05-23 05:48:51 Local
Sunset 2018-05-24 00:39:19 UTC / 2018-05-23 19:39:19 Local
Advertisement - Login to hide

Runways

ID Width Length Bearing (true) Bearing (mag) Surface Threshold Offset Overrun Length
14 98 ft / 30 m 5,007 ft / 1,526 m 142.27° 145.61° Asphalt 0 ft / 0 m 200 ft / 61 m
32 98 ft / 30 m 5,007 ft / 1,526 m 322.28° 325.62° Asphalt 0 ft / 0 m 200 ft / 61 m

Map

Weather


0- 5 10 15 20 25 30 35+ Temperature / ° C

Clouds and Precipitation
Forecast for 2018-05-23 12:00 UTC. Updated 4 hours ago

Ground ~20,000 ft ~40,000 ft Winds

METAR

KDTS 231500Z 15006KT 10SM FEW038 28/22 A3008 RMK AO2 T02830222

TAF

Not found

Frequencies

Recorded 133.92 MHz ASOS
Clearance 121.60 MHz EGLIN CLNC DEL
Approach 132.10 MHz EGLIN APP/DEP
Unicom 123.07 MHz UNICOM
Clearance 127.70 MHz EGLIN CLNC DEL
Warning: Do not use this data for real-world aviation or navigation. No guarantee of current accuracy is given.